Date String (YYYY-MM-DD hh:mm:ss) UTC,Instrument flags,Ambient pressure (hPa),Sample flow (lpm),Bypass flow (lpm),Sample temperature (°C),Ambient temperature (°C),ASC tube jacket temperature (°C),LED temperature (°C),Box temperature (°C),Sample RH (%),Span deviation,Mass concentration (μg/m³),Mass concentration (μg/m³),Mass concentration (μg/m³)
DateTimeUTC,F1_M11,P_M11,Q1_M11,Q2_M11,T1_M11,T2_M11,T3_M11,T4_M11,T5_M11,U1_M11,ZSPAN_M11,X0_M11,X2_M11,X1_M11
2022-11-03 01:00:00,,0817.3,5.01,0.00,29.7,28.4,00.0,38.6,31.6,07.1,0000.0,0010.67,0002.68,0001.65
2022-11-03 01:01:00,,0817.3,5.00,0.00,29.8,28.4,00.0,38.6,31.6,07.2,0000.0,0010.69,0002.59,0001.66
2022-11-03 01:02:00,,0817.3,5.00,0.00,29.8,28.4,00.0,38.6,31.6,07.1,0000.0,0010.63,0002.58,0001.65
2022-11-03 01:03:00,,0817.3,5.00,0.00,29.8,28.4,00.0,38.6,31.6,07.2,0000.0,0010.21,0002.54,0001.64
2022-11-03 01:04:00,,0817.2,5.00,0.00,29.8,28.4,00.0,38.6,31.6,07.2,0000.0,0010.27,0002.52,0001.64
2022-11-03 01:05:00,,0817.3,5.00,0.00,29.8,28.4,00.0,38.6,31.6,07.1,0000.0,0010.15,0002.51,0001.64
2022-11-03 01:06:00,,0817.2,5.00,0.00,29.8,28.4,00.0,38.6,31.6,07.1,0000.0,0009.54,0002.51,0001.64
2022-11-03 01:07:00,,0817.3,5.00,0.00,29.8,28.4,00.0,38.6,31.6,07.2,0000.0,0008.96,0002.49,0001.65
2022-11-03 01:08:00,,0817.3,4.99,0.00,29.8,28.4,00.0,38.6,31.6,07.2,0000.0,0008.92,0002.47,0001.66
2022-11-03 01:09:00,,0817.3,4.99,0.00,29.8,28.4,00.0,38.6,31.6,07.1,0000.0,0008.04,0002.44,0001.66
2022-11-03 01:10:00,,0817.3,5.00,0.00,29.8,28.4,00.0,38.6,31.6,07.2,0000.0,0008.11,0002.43,0001.67
2022-11-03 01:11:00,,0817.2,5.00,0.00,29.8,28.4,00.0,38.6,31.6,07.1,0000.0,0008.18,0002.39,0001.68
2022-11-03 01:12:00,,0817.2,5.00,0.00,29.8,28.4,00.0,38.6,31.6,07.1,0000.0,0007.54,0002.39,0001.68
2022-11-03 01:13:00,,0817.3,5.00,0.00,29.8,28.4,00.0,38.6,31.6,07.1,0000.0,0007.09,0002.43,0001.68
2022-11-03 01:14:00,,0817.2,5.00,0.00,29.8,28.4,00.0,38.7,31.6,07.1,0000.0,0007.07,0002.42,0001.69
2022-11-03 01:15:00,,0817.2,5.00,0.00,29.8,28.4,00.0,38.7,31.7,07.1,0000.0,0007.01,0002.47,0001.70
2022-11-03 01:16:00,,0817.2,5.00,0.00,29.8,28.4,00.0,38.7,31.7,07.0,0000.0,0007.33,0002.53,0001.71
2022-11-03 01:17:00,,0817.2,5.01,0.00,29.8,28.4,00.0,38.7,31.6,07.0,0000.0,0007.85,0002.55,0001.72
2022-11-03 01:18:00,,0817.2,5.00,0.00,29.8,28.4,00.0,38.7,31.7,07.0,0000.0,0008.41,0002.57,0001.71
2022-11-03 01:19:00,,0817.2,5.00,0.00,29.8,28.4,00.0,38.7,31.6,07.1,0000.0,0009.22,0002.59,0001.71
2022-11-03 01:20:00,,0817.2,5.00,0.00,29.8,28.4,00.0,38.7,31.6,07.1,0000.0,0009.65,0002.60,0001.73
2022-11-03 01:21:00,,0817.2,5.00,0.00,29.8,28.4,00.0,38.7,31.6,07.0,0000.0,0009.41,0002.63,0001.72
2022-11-03 01:22:00,,0817.2,5.00,0.00,29.8,28.3,00.0,38.7,31.6,07.0,0000.0,0008.89,0002.62,0001.71
2022-11-03 01:23:00,,0817.3,5.00,0.00,29.8,28.3,00.0,38.7,31.6,07.1,0000.0,0008.90,0002.66,0001.71
2022-11-03 01:24:00,,0817.2,5.00,0.00,29.8,28.3,00.0,38.7,31.6,07.1,0000.0,0009.03,0002.68,0001.73
2022-11-03 01:25:00,,0817.2,5.00,0.00,29.8,28.3,00.0,38.7,31.6,07.2,0000.0,0009.28,0002.65,0001.75
2022-11-03 01:26:00,,0817.3,5.00,0.00,29.8,28.3,00.0,38.7,31.6,07.3,0000.0,0009.35,0002.60,0001.76
2022-11-03 01:27:00,,0817.3,5.00,0.00,29.8,28.4,00.0,38.7,31.6,07.3,0000.0,0009.48,0002.58,0001.76
2022-11-03 01:28:00,,0817.3,5.00,0.00,29.8,28.4,00.0,38.7,31.6,07.3,0000.0,0009.13,0002.59,0001.77
2022-11-03 01:29:00,,0817.3,5.00,0.00,29.8,28.3,00.0,38.7,31.6,07.2,0000.0,0008.45,0002.58,0001.78
2022-11-03 01:30:00,,0817.3,5.00,0.00,29.8,28.3,00.0,38.7,31.6,07.2,0000.0,0007.96,0002.66,0001.79
2022-11-03 01:31:00,,0817.3,4.99,0.00,29.8,28.3,00.0,38.7,31.6,07.2,0000.0,0007.05,0002.62,0001.79
2022-11-03 01:32:00,,0817.3,5.00,0.00,29.8,28.3,00.0,38.7,31.6,07.2,0000.0,0007.07,0002.65,0001.81
2022-11-03 01:33:00,,0817.3,5.01,0.00,29.8,28.3,00.0,38.7,31.6,07.2,0000.0,0007.26,0002.72,0001.83
2022-11-03 01:34:00,,0817.2,5.01,0.00,29.8,28.3,00.0,38.7,31.6,07.2,0000.0,0007.49,0002.72,0001.84
2022-11-03 01:35:00,,0817.3,4.99,0.00,29.8,28.3,00.0,38.7,31.6,07.2,0000.0,0007.27,0002.67,0001.83
2022-11-03 01:36:00,,0817.3,5.00,0.00,29.8,28.3,00.0,38.7,31.6,07.2,0000.0,0006.48,0002.63,0001.83
2022-11-03 01:37:00,,0817.3,5.00,0.00,29.8,28.3,00.0,38.7,31.6,07.2,0000.0,0006.72,0002.64,0001.82
2022-11-03 01:38:00,,0817.2,5.00,0.00,29.8,28.3,00.0,38.7,31.6,07.2,0000.0,0006.36,0002.66,0001.81
2022-11-03 01:39:00,,0817.2,5.00,0.00,29.8,28.3,00.0,38.7,31.6,07.2,0000.0,0007.31,0002.71,0001.80
2022-11-03 01:40:00,,0817.2,5.00,0.00,29.8,28.2,00.0,38.7,31.6,07.2,0000.0,0007.71,0002.78,0001.80
2022-11-03 01:41:00,,0817.2,5.00,0.00,29.8,28.3,00.0,38.7,31.6,07.2,0000.0,0007.72,0002.77,0001.79
2022-11-03 01:42:00,,0817.2,5.00,0.00,29.8,28.3,00.0,38.7,31.6,07.2,0000.0,0007.62,0002.75,0001.77
2022-11-03 01:43:00,,0817.2,5.00,0.00,29.8,28.3,00.0,38.7,31.6,07.2,0000.0,0007.52,0002.73,0001.75
2022-11-03 01:44:00,,0817.2,5.00,0.00,29.8,28.3,00.0,38.7,31.5,07.2,0000.0,0007.43,0002.69,0001.74
2022-11-03 01:45:00,,0817.2,5.01,0.00,29.8,28.3,00.0,38.7,31.6,07.2,0000.0,0007.07,0002.65,0001.74
2022-11-03 01:46:00,,0817.2,4.99,0.00,29.8,28.3,00.0,38.7,31.6,07.2,0000.0,0007.45,0002.66,0001.75
2022-11-03 01:47:00,,0817.2,4.99,0.00,29.8,28.3,00.0,38.7,31.6,07.2,0000.0,0008.75,0002.69,0001.75
2022-11-03 01:48:00,,0817.3,5.00,0.00,29.8,28.3,00.0,38.7,31.6,07.2,0000.0,0008.66,0002.67,0001.75
2022-11-03 01:49:00,,0817.2,5.00,0.00,29.8,28.3,00.0,38.7,31.6,07.2,0000.0,0008.29,0002.62,0001.76
2022-11-03 01:50:00,,0817.2,5.01,0.00,29.8,28.3,00.0,38.7,31.6,07.2,0000.0,0007.97,0002.52,0001.75
2022-11-03 01:51:00,,0817.3,5.01,0.00,29.8,28.3,00.0,38.7,31.6,07.2,0000.0,0008.25,0002.44,0001.74
2022-11-03 01:52:00,,0817.3,5.00,0.00,29.8,28.3,00.0,38.7,31.6,07.2,0000.0,0008.85,0002.37,0001.75
2022-11-03 01:53:00,,0817.3,4.99,0.00,29.8,28.2,00.0,38.6,31.6,07.3,0000.0,0009.06,0002.45,0001.76
2022-11-03 01:54:00,,0817.3,4.99,0.00,29.8,28.3,00.0,38.7,31.6,07.3,0000.0,0009.40,0002.51,0001.76
2022-11-03 01:55:00,,0817.3,5.00,0.00,29.8,28.3,00.0,38.6,31.6,07.2,0000.0,0009.36,0002.49,0001.77
2022-11-03 01:56:00,,0817.3,5.00,0.00,29.8,28.3,00.0,38.6,31.5,07.2,0000.0,0009.37,0002.51,0001.77
2022-11-03 01:57:00,,0817.4,5.01,0.00,29.8,28.3,00.0,38.6,31.5,07.2,0000.0,0009.24,0002.51,0001.76
2022-11-03 01:58:00,,0817.4,5.01,0.00,29.8,28.3,00.0,38.7,31.6,07.2,0000.0,0008.18,0002.50,0001.77
2022-11-03 01:59:00,,0817.3,5.01,0.00,29.8,28.3,00.0,38.7,31.6,07.3,0000.0,0008.72,0002.56,0001.77
